Tracking 31027 objects as of 19-Jul-2025
HD Live streaming from Space Station
objects crossing your sky now

STARLINK-5277

Track STARLINK-5277 now!
10-day predictions
STARLINK-5277 is classified as:


NORAD ID: 55269
Int'l Code: 2023-010A
Perigee: 577.1 km
Apogee: 581.4 km
Inclination: 70.0 °
Period: 96.1 minutes
Semi major axis: 6950 km
RCS: Unknown
Launch date: January 19, 2023
Source: United States (US)
Launch site: AIR FORCE WESTERN TEST RANGE (AFWTR)
Your satellite tracking list
STARLINK-31009
Track 1 satellite(s)




NASA's NSSDC Master Catalog

Two Line Element Set (TLE):
1 55269U 23010A   25199.49415444  .00001037  00000-0  94686-4 0  9992
2 55269  69.9996 275.0305 0003126 268.2669  91.8132 14.98317648137983
Source of the keplerian elements: AFSPC